DECAYED

COSMOS 2251 DEB, 34428 (Decayed)

Orbit data source: Space-Track

COSMOS 2251 DEB, 34428 was space debris in LEO originally from a launch on Wed, 16 Jun 1993 UTC launched from the Plesetsk Missile And Space Complex (PKMTR). The debris from Iridium 33, an American commercial communications satellite, has been tracked extensively since its accidental collision with the defunct Russian satellite Cosmos 2251 in 2009. This event, occurring at high speed in low Earth orbit (LEO), generated thousands of pieces of space debris, significantly increasing the risk of further collisions. The Iridium 33 debris cloud has impacted space traffic management and orbital debris mitigation strategies, making it a subject of ongoing study in space situational awareness.

Not visible in the next 10 days
Identifier
34428, 1993-036RV
Orbit
Decayed
Country
Flag of CISCIS
Related business
Manufacturer
Unknown
Mission
Decayed spacecraft
Bus & Motor
Unknown
Mass
Unknown
Launch date (UTC)
1993-06-16 (33 years ago)
Launch vehicle
Unknown
Launch site
Plesetsk Missile And Space Complex (PKMTR)
Object type
Payload
Rocket body
Debris
Shape & HBR
Unknown shape, 0.1 m
Radar Cross Section
Medium (>0.1 m² and <1 m²)

Expand to show TLE details & history
Last TLE update: 1 year ago

TLE from 1 year ago
0 COSMOS 2251 DEB
1 34428U 93036RV  25108.98115117  .08609854  33266+0  17910-1 0  9999
2 34428  73.9803  89.4086 0015681 221.6690 138.3359 16.08145492854071
Epoch: 2025-04-18T23:32Z
TLE epoch observation values (Epoch: 2025-04-18T23:32:51.461Z)
Latitude
-0.00006°
Longitude
-111.13674°
Altitude
262.524 km
Speed
7.745 km/s
True Right ascension
05h 57m 38s
True Declination
0° 00' 00"
Sunlit
Object was in daylight at epoch
Visualization orbit readout
Latitude
Unknown
Longitude
Unknown
Altitude
Unknown
Speed
Unknown
Apparent Right ascension
Unknown
Apparent Declination
Unknown
Sunlit
N/A
Visualization observer readout
Local Sidereal Time
15:54:07
Azimuth
Unknown
Elevation
Unknown
Doppler factor
Unknown
Orbital elements
Apogee altitude
259.77 km
Perigee altitude
238.985 km
Semi-major axis
6,627.515 km
Eccentricity
0.00157
Inclination
73.9803°
RAAN
89.4086°
Arg. of periapsis
221.669°
True anomaly
138.45518°
Mean anomaly
138.3359°
Eccentric anomaly
138.39556°
Mean motion
4.02269 °/min
Orbital period
89.49 mins
BSTAR
0.01791
Loading maneuver chart data...
Computing Atmospheric mass density...

Documentation

Showing up to 5 results
|